#datetime,building,power
2023-10-21T00:01:00,pkn,1.20
2023-10-21T00:03:00,pkn,2.40
2023-10-21T00:05:00,pkn,2.40
2023-10-21T00:06:00,pkn,1.20
2023-10-21T00:09:00,pkn,2.40
2023-10-21T00:11:00,pkn,2.40
2023-10-21T00:13:00,pkn,1.20
2023-10-21T00:14:00,pkn,1.20
2023-10-21T00:16:00,pkn,1.20
2023-10-21T00:17:00,pkn,1.20
2023-10-21T00:19:00,pkn,1.20
2023-10-21T00:20:00,pkn,1.20
2023-10-21T00:22:00,pkn,1.20
2023-10-21T00:24:00,pkn,2.40
2023-10-21T00:25:00,pkn,2.40
2023-10-21T00:27:00,pkn,8.40
2023-10-21T00:28:00,pkn,1.20
2023-10-21T00:29:00,pkn,8.40
2023-10-21T00:30:00,pkn,2.40
2023-10-21T00:31:00,pkn,8.40
2023-10-21T00:32:00,pkn,6.00
2023-10-21T00:34:00,pkn,8.40
2023-10-21T00:36:00,pkn,4.80
2023-10-21T00:37:00,pkn,1.20
2023-10-21T00:39:00,pkn,1.20
2023-10-21T00:41:00,pkn,1.20
2023-10-21T00:42:00,pkn,1.20
2023-10-21T00:44:00,pkn,2.40
2023-10-21T00:47:00,pkn,2.40
2023-10-21T00:49:00,pkn,1.20
2023-10-21T00:50:00,pkn,1.20
2023-10-21T00:51:00,pkn,1.20
2023-10-21T00:53:00,pkn,1.20
2023-10-21T00:55:00,pkn,2.40
2023-10-21T00:57:00,pkn,1.20
2023-10-21T00:59:00,pkn,2.40
2023-10-21T01:00:00,pkn,3.60
2023-10-21T01:02:00,pkn,1.20
2023-10-21T01:03:00,pkn,13.20
2023-10-21T01:05:00,pkn,10.80
2023-10-21T01:07:00,pkn,9.60
2023-10-21T01:09:00,pkn,10.80
2023-10-21T01:11:00,pkn,9.60
2023-10-21T01:12:00,pkn,3.60
2023-10-21T01:13:00,pkn,2.40
2023-10-21T01:14:00,pkn,1.20
2023-10-21T01:15:00,pkn,1.20
2023-10-21T01:16:00,pkn,1.20
2023-10-21T01:17:00,pkn,1.20
2023-10-21T01:19:00,pkn,2.40
2023-10-21T01:21:00,pkn,1.20
2023-10-21T01:23:00,pkn,2.40
2023-10-21T01:24:00,pkn,1.20
2023-10-21T01:26:00,pkn,2.40
2023-10-21T01:28:00,pkn,1.20
2023-10-21T01:30:00,pkn,1.20
2023-10-21T01:32:00,pkn,2.40
2023-10-21T01:33:00,pkn,3.60
2023-10-21T01:34:00,pkn,8.40
2023-10-21T01:36:00,pkn,10.80
2023-10-21T01:37:00,pkn,4.80
2023-10-21T01:39:00,pkn,9.60
2023-10-21T01:40:00,pkn,4.80
2023-10-21T01:41:00,pkn,1.20
2023-10-21T01:43:00,pkn,1.20
2023-10-21T01:45:00,pkn,2.40
2023-10-21T01:47:00,pkn,1.20
2023-10-21T01:48:00,pkn,1.20
2023-10-21T01:50:00,pkn,1.20
2023-10-21T01:51:00,pkn,1.20
2023-10-21T01:53:00,pkn,1.20
2023-10-21T01:55:00,pkn,2.40
2023-10-21T01:56:00,pkn,1.20
2023-10-21T01:58:00,pkn,1.20
2023-10-21T01:59:00,pkn,1.20
2023-10-21T02:01:00,pkn,2.40
2023-10-21T02:03:00,pkn,1.20
2023-10-21T02:05:00,pkn,1.20
2023-10-21T02:06:00,pkn,1.20
2023-10-21T02:08:00,pkn,1.20
2023-10-21T02:10:00,pkn,2.40
2023-10-21T02:11:00,pkn,6.00
2023-10-21T02:13:00,pkn,8.40
2023-10-21T02:14:00,pkn,6.00
2023-10-21T02:16:00,pkn,9.60
2023-10-21T02:17:00,pkn,4.80
2023-10-21T02:19:00,pkn,4.80
2023-10-21T02:22:00,pkn,2.40
2023-10-21T02:24:00,pkn,2.40
2023-10-21T02:26:00,pkn,1.20
2023-10-21T02:28:00,pkn,2.40
2023-10-21T02:30:00,pkn,1.20
2023-10-21T02:32:00,pkn,2.40
2023-10-21T02:34:00,pkn,1.20
2023-10-21T02:35:00,pkn,1.20
2023-10-21T02:37:00,pkn,1.20
2023-10-21T02:39:00,pkn,2.40
2023-10-21T02:40:00,pkn,1.20
2023-10-21T02:42:00,pkn,1.20
2023-10-21T02:44:00,pkn,2.40
2023-10-21T02:45:00,pkn,1.20
2023-10-21T02:48:00,pkn,1.20
2023-10-21T02:50:00,pkn,1.20
2023-10-21T02:52:00,pkn,2.40
2023-10-21T02:54:00,pkn,1.20
2023-10-21T02:56:00,pkn,1.20
2023-10-21T02:57:00,pkn,1.20
2023-10-21T02:59:00,pkn,1.20
2023-10-21T03:01:00,pkn,2.40
2023-10-21T03:04:00,pkn,4.80
2023-10-21T03:06:00,pkn,8.40
2023-10-21T03:08:00,pkn,9.60
2023-10-21T03:10:00,pkn,10.80
2023-10-21T03:11:00,pkn,2.40
2023-10-21T03:12:00,pkn,1.20
2023-10-21T03:14:00,pkn,2.40
2023-10-21T03:15:00,pkn,1.20
2023-10-21T03:17:00,pkn,1.20
2023-10-21T03:18:00,pkn,1.20
2023-10-21T03:19:00,pkn,1.20
2023-10-21T03:22:00,pkn,2.40
2023-10-21T03:24:00,pkn,1.20
2023-10-21T03:25:00,pkn,1.20
2023-10-21T03:28:00,pkn,2.40
2023-10-21T03:29:00,pkn,1.20
2023-10-21T03:31:00,pkn,1.20
2023-10-21T03:32:00,pkn,1.20
2023-10-21T03:33:00,pkn,1.20
2023-10-21T03:34:00,pkn,1.20
2023-10-21T03:36:00,pkn,1.20
2023-10-21T03:38:00,pkn,2.40
2023-10-21T03:40:00,pkn,2.40
2023-10-21T03:42:00,pkn,1.20
2023-10-21T03:43:00,pkn,1.20
2023-10-21T03:45:00,pkn,2.40
2023-10-21T03:47:00,pkn,1.20
2023-10-21T03:48:00,pkn,1.20
2023-10-21T03:50:00,pkn,1.20
2023-10-21T03:51:00,pkn,1.20
2023-10-21T03:53:00,pkn,1.20
2023-10-21T03:54:00,pkn,1.20
2023-10-21T03:55:00,pkn,1.20
2023-10-21T03:56:00,pkn,1.20
2023-10-21T03:58:00,pkn,1.20
2023-10-21T04:00:00,pkn,2.40
2023-10-21T04:02:00,pkn,1.20
2023-10-21T04:03:00,pkn,1.20
2023-10-21T04:05:00,pkn,2.40
2023-10-21T04:07:00,pkn,2.40
2023-10-21T04:09:00,pkn,1.20
2023-10-21T04:11:00,pkn,3.60
2023-10-21T04:13:00,pkn,8.40
2023-10-21T04:15:00,pkn,9.60
2023-10-21T04:17:00,pkn,10.80
2023-10-21T04:20:00,pkn,6.00
2023-10-21T04:22:00,pkn,1.20
2023-10-21T04:23:00,pkn,1.20
2023-10-21T04:25:00,pkn,1.20
2023-10-21T04:27:00,pkn,2.40
2023-10-21T04:29:00,pkn,1.20
2023-10-21T04:31:00,pkn,2.40
2023-10-21T04:33:00,pkn,1.20
2023-10-21T04:34:00,pkn,1.20
2023-10-21T04:36:00,pkn,2.40
2023-10-21T04:38:00,pkn,1.20
2023-10-21T04:39:00,pkn,1.20
2023-10-21T04:41:00,pkn,1.20
2023-10-21T04:43:00,pkn,1.20
2023-10-21T04:44:00,pkn,1.20
2023-10-21T04:46:00,pkn,2.40
2023-10-21T04:47:00,pkn,1.20
2023-10-21T04:49:00,pkn,1.20
2023-10-21T04:50:00,pkn,1.20
2023-10-21T04:52:00,pkn,2.40
2023-10-21T04:54:00,pkn,2.40
2023-10-21T04:56:00,pkn,1.20
2023-10-21T04:58:00,pkn,2.40
2023-10-21T05:00:00,pkn,1.20
2023-10-21T05:02:00,pkn,2.40
2023-10-21T05:04:00,pkn,1.20
2023-10-21T05:06:00,pkn,2.40
2023-10-21T05:08:00,pkn,2.40
2023-10-21T05:10:00,pkn,1.20
2023-10-21T05:12:00,pkn,2.40
2023-10-21T05:13:00,pkn,1.20
2023-10-21T05:15:00,pkn,1.20
2023-10-21T05:17:00,pkn,1.20
2023-10-21T05:19:00,pkn,2.40
2023-10-21T05:21:00,pkn,1.20
2023-10-21T05:23:00,pkn,1.20
2023-10-21T05:25:00,pkn,2.40
2023-10-21T05:27:00,pkn,1.20
2023-10-21T05:28:00,pkn,1.20
2023-10-21T05:30:00,pkn,1.20
2023-10-21T05:31:00,pkn,1.20
2023-10-21T05:33:00,pkn,1.20
2023-10-21T05:34:00,pkn,3.60
2023-10-21T05:36:00,pkn,9.60
2023-10-21T05:38:00,pkn,9.60
2023-10-21T05:40:00,pkn,9.60
2023-10-21T05:41:00,pkn,2.40
2023-10-21T05:43:00,pkn,1.20
2023-10-21T05:44:00,pkn,1.20
2023-10-21T05:46:00,pkn,2.40
2023-10-21T05:47:00,pkn,1.20
2023-10-21T05:49:00,pkn,1.20
2023-10-21T05:51:00,pkn,2.40
2023-10-21T05:53:00,pkn,1.20
2023-10-21T05:55:00,pkn,2.40
2023-10-21T05:57:00,pkn,1.20
2023-10-21T05:59:00,pkn,2.40
2023-10-21T06:02:00,pkn,2.40
2023-10-21T06:04:00,pkn,2.40
2023-10-21T06:06:00,pkn,1.20
2023-10-21T06:07:00,pkn,1.20
2023-10-21T06:09:00,pkn,2.40
2023-10-21T06:11:00,pkn,1.20
2023-10-21T06:12:00,pkn,1.20
2023-10-21T06:14:00,pkn,1.20
2023-10-21T06:15:00,pkn,1.20
2023-10-21T06:17:00,pkn,2.40
2023-10-21T06:19:00,pkn,1.20
2023-10-21T06:21:00,pkn,2.40
2023-10-21T06:24:00,pkn,2.40
2023-10-21T06:26:00,pkn,2.40
2023-10-21T06:29:00,pkn,2.40
2023-10-21T06:30:00,pkn,1.20
2023-10-21T06:31:00,pkn,1.20
2023-10-21T06:33:00,pkn,1.20
2023-10-21T06:34:00,pkn,1.20
2023-10-21T06:36:00,pkn,1.20
2023-10-21T06:37:00,pkn,1.20
2023-10-21T06:39:00,pkn,1.20
2023-10-21T06:40:00,pkn,1.20
2023-10-21T06:42:00,pkn,1.20
2023-10-21T06:44:00,pkn,1.20
2023-10-21T06:46:00,pkn,1.20
2023-10-21T06:48:00,pkn,2.40
2023-10-21T06:50:00,pkn,1.20
2023-10-21T06:51:00,pkn,1.20
2023-10-21T06:53:00,pkn,1.20
2023-10-21T06:55:00,pkn,2.40
2023-10-21T06:57:00,pkn,1.20
2023-10-21T06:59:00,pkn,2.40
2023-10-21T07:01:00,pkn,2.40
2023-10-21T07:02:00,pkn,3.60
2023-10-21T07:03:00,pkn,1.20
2023-10-21T07:04:00,pkn,9.60
2023-10-21T07:05:00,pkn,4.80
2023-10-21T07:07:00,pkn,10.80
2023-10-21T07:08:00,pkn,4.80
2023-10-21T07:09:00,pkn,6.00
2023-10-21T07:11:00,pkn,9.60
2023-10-21T07:14:00,pkn,2.40
2023-10-21T07:16:00,pkn,2.40
2023-10-21T07:18:00,pkn,1.20
2023-10-21T07:20:00,pkn,2.40
2023-10-21T07:21:00,pkn,1.20
2023-10-21T07:22:00,pkn,1.20
2023-10-21T07:24:00,pkn,1.20
2023-10-21T07:25:00,pkn,1.20
2023-10-21T07:27:00,pkn,2.40
2023-10-21T07:30:00,pkn,2.40
2023-10-21T07:32:00,pkn,1.20
2023-10-21T07:34:00,pkn,2.40
2023-10-21T07:36:00,pkn,1.20
2023-10-21T07:38:00,pkn,2.40
2023-10-21T07:41:00,pkn,2.40
2023-10-21T07:43:00,pkn,1.20
2023-10-21T07:44:00,pkn,1.20
2023-10-21T07:46:00,pkn,8.40
2023-10-21T07:47:00,pkn,4.80
2023-10-21T07:49:00,pkn,9.60
2023-10-21T07:50:00,pkn,4.80
2023-10-21T07:51:00,pkn,4.80
2023-10-21T07:53:00,pkn,4.80
2023-10-21T07:55:00,pkn,2.40
2023-10-21T07:57:00,pkn,1.20
2023-10-21T07:58:00,pkn,1.20
2023-10-21T07:59:00,pkn,1.20
2023-10-21T08:01:00,pkn,1.20
2023-10-21T08:03:00,pkn,2.40
2023-10-21T08:05:00,pkn,1.20
2023-10-21T08:06:00,pkn,1.20
2023-10-21T08:07:00,pkn,1.20
2023-10-21T08:09:00,pkn,2.40
2023-10-21T08:11:00,pkn,1.20
2023-10-21T08:13:00,pkn,1.20
2023-10-21T08:15:00,pkn,2.40
2023-10-21T08:16:00,pkn,1.20
2023-10-21T08:18:00,pkn,1.20
2023-10-21T08:19:00,pkn,1.20
2023-10-21T08:21:00,pkn,1.20
2023-10-21T08:22:00,pkn,1.20
2023-10-21T08:24:00,pkn,2.40
2023-10-21T08:26:00,pkn,1.20
2023-10-21T08:28:00,pkn,2.40
2023-10-21T08:30:00,pkn,1.20
2023-10-21T08:32:00,pkn,1.20
2023-10-21T08:34:00,pkn,1.20
2023-10-21T08:36:00,pkn,2.40
2023-10-21T08:38:00,pkn,1.20
2023-10-21T08:40:00,pkn,1.20
2023-10-21T08:41:00,pkn,1.20
2023-10-21T08:43:00,pkn,1.20
2023-10-21T08:45:00,pkn,6.00
2023-10-21T08:46:00,pkn,3.60
2023-10-21T08:48:00,pkn,10.80
2023-10-21T08:50:00,pkn,9.60
2023-10-21T08:52:00,pkn,7.20
2023-10-21T08:53:00,pkn,1.20
2023-10-21T08:55:00,pkn,1.20
2023-10-21T08:57:00,pkn,2.40
2023-10-21T08:59:00,pkn,1.20
2023-10-21T09:01:00,pkn,2.40
2023-10-21T09:03:00,pkn,1.20
2023-10-21T09:05:00,pkn,2.40
2023-10-21T09:06:00,pkn,1.20
2023-10-21T09:08:00,pkn,1.20
2023-10-21T09:10:00,pkn,1.20
2023-10-21T09:12:00,pkn,1.20
2023-10-21T09:13:00,pkn,1.20
2023-10-21T09:15:00,pkn,1.20
2023-10-21T09:16:00,pkn,1.20
2023-10-21T09:18:00,pkn,2.40
2023-10-21T09:21:00,pkn,2.40
2023-10-21T09:23:00,pkn,1.20
2023-10-21T09:25:00,pkn,1.20
2023-10-21T09:26:00,pkn,1.20
2023-10-21T09:28:00,pkn,1.20
2023-10-21T09:29:00,pkn,1.20
2023-10-21T09:31:00,pkn,1.20
2023-10-21T09:33:00,pkn,2.40
2023-10-21T09:35:00,pkn,1.20
2023-10-21T09:37:00,pkn,2.40
2023-10-21T09:39:00,pkn,1.20
2023-10-21T09:40:00,pkn,1.20
2023-10-21T09:43:00,pkn,2.40
2023-10-21T09:45:00,pkn,1.20
2023-10-21T09:47:00,pkn,1.20
2023-10-21T09:49:00,pkn,2.40
2023-10-21T09:51:00,pkn,1.20
2023-10-21T09:53:00,pkn,8.40
2023-10-21T09:54:00,pkn,4.80
2023-10-21T09:56:00,pkn,9.60
2023-10-21T09:57:00,pkn,4.80
2023-10-21T09:59:00,pkn,7.20
2023-10-21T10:00:00,pkn,1.20
2023-10-21T10:02:00,pkn,2.40
2023-10-21T10:03:00,pkn,1.20
2023-10-21T10:06:00,pkn,2.40
2023-10-21T10:08:00,pkn,2.40
2023-10-21T10:10:00,pkn,1.20
2023-10-21T10:12:00,pkn,2.40
2023-10-21T10:13:00,pkn,1.20
2023-10-21T10:14:00,pkn,1.20
2023-10-21T10:16:00,pkn,2.40
2023-10-21T10:18:00,pkn,2.40
2023-10-21T10:19:00,pkn,1.20
2023-10-21T10:21:00,pkn,1.20
2023-10-21T10:23:00,pkn,2.40
2023-10-21T10:25:00,pkn,7.20
2023-10-21T10:27:00,pkn,8.40
2023-10-21T10:28:00,pkn,6.00
2023-10-21T10:30:00,pkn,9.60
2023-10-21T10:32:00,pkn,8.40
2023-10-21T10:33:00,pkn,1.20
2023-10-21T10:35:00,pkn,1.20
2023-10-21T10:37:00,pkn,2.40
2023-10-21T10:39:00,pkn,1.20
2023-10-21T10:40:00,pkn,1.20
2023-10-21T10:43:00,pkn,2.40
2023-10-21T10:46:00,pkn,2.40
2023-10-21T10:48:00,pkn,1.20
2023-10-21T10:49:00,pkn,1.20
2023-10-21T10:51:00,pkn,2.40
2023-10-21T10:53:00,pkn,1.20
2023-10-21T10:55:00,pkn,2.40
2023-10-21T10:57:00,pkn,2.40
2023-10-21T11:00:00,pkn,2.40
2023-10-21T11:01:00,pkn,1.20
2023-10-21T11:03:00,pkn,1.20
2023-10-21T11:05:00,pkn,1.20
2023-10-21T11:07:00,pkn,2.40
2023-10-21T11:09:00,pkn,1.20
2023-10-21T11:11:00,pkn,8.40
2023-10-21T11:13:00,pkn,8.40
2023-10-21T11:14:00,pkn,6.00
2023-10-21T11:16:00,pkn,8.40
2023-10-21T11:17:00,pkn,6.00
2023-10-21T11:19:00,pkn,3.60
2023-10-21T11:20:00,pkn,2.40
2023-10-21T11:22:00,pkn,1.20
2023-10-21T11:24:00,pkn,1.20
2023-10-21T11:26:00,pkn,1.20
2023-10-21T11:28:00,pkn,1.20
2023-10-21T11:30:00,pkn,2.40
2023-10-21T11:32:00,pkn,1.20
2023-10-21T11:33:00,pkn,1.20
2023-10-21T11:35:00,pkn,1.20
2023-10-21T11:36:00,pkn,1.20
2023-10-21T11:38:00,pkn,1.20
2023-10-21T11:40:00,pkn,2.40
2023-10-21T11:41:00,pkn,1.20
2023-10-21T11:44:00,pkn,1.20
2023-10-21T11:45:00,pkn,1.20
2023-10-21T11:47:00,pkn,1.20
2023-10-21T11:49:00,pkn,1.20
2023-10-21T11:51:00,pkn,2.40
2023-10-21T11:53:00,pkn,1.20
2023-10-21T11:55:00,pkn,1.20
2023-10-21T11:56:00,pkn,1.20
2023-10-21T11:58:00,pkn,2.40
2023-10-21T12:00:00,pkn,10.80
2023-10-21T12:02:00,pkn,9.60
2023-10-21T12:03:00,pkn,3.60
2023-10-21T12:04:00,pkn,6.00
2023-10-21T12:06:00,pkn,9.60
2023-10-21T12:07:00,pkn,4.80
2023-10-21T12:09:00,pkn,9.60
2023-10-21T12:10:00,pkn,3.60
2023-10-21T12:13:00,pkn,2.40
2023-10-21T12:15:00,pkn,1.20
2023-10-21T12:18:00,pkn,1.20
2023-10-21T12:20:00,pkn,1.20
2023-10-21T12:22:00,pkn,2.40
2023-10-21T12:25:00,pkn,1.20
2023-10-21T12:26:00,pkn,1.20
2023-10-21T12:29:00,pkn,1.20
2023-10-21T12:31:00,pkn,1.20
2023-10-21T12:33:00,pkn,1.20
2023-10-21T12:35:00,pkn,1.20
2023-10-21T12:36:00,pkn,1.20
2023-10-21T12:38:00,pkn,4.80
2023-10-21T12:39:00,pkn,6.00
2023-10-21T12:41:00,pkn,8.40
2023-10-21T12:43:00,pkn,9.60
2023-10-21T12:45:00,pkn,8.40
2023-10-21T12:47:00,pkn,1.20
2023-10-21T12:48:00,pkn,1.20
2023-10-21T12:50:00,pkn,1.20
2023-10-21T12:53:00,pkn,2.40
2023-10-21T12:56:00,pkn,1.20
2023-10-21T12:57:00,pkn,1.20
2023-10-21T12:58:00,pkn,1.20
2023-10-21T13:00:00,pkn,1.20
2023-10-21T13:03:00,pkn,2.40
2023-10-21T13:05:00,pkn,1.20
2023-10-21T13:08:00,pkn,1.20
2023-10-21T13:09:00,pkn,1.20
2023-10-21T13:11:00,pkn,1.20
2023-10-21T13:12:00,pkn,1.20
2023-10-21T13:15:00,pkn,1.20
2023-10-21T13:16:00,pkn,1.20
2023-10-21T13:18:00,pkn,1.20
2023-10-21T13:20:00,pkn,1.20
2023-10-21T13:22:00,pkn,1.20
2023-10-21T13:23:00,pkn,1.20
2023-10-21T13:25:00,pkn,1.20
2023-10-21T13:27:00,pkn,1.20
2023-10-21T13:29:00,pkn,2.40
2023-10-21T13:30:00,pkn,1.20
2023-10-21T13:32:00,pkn,6.00
2023-10-21T13:33:00,pkn,4.80
2023-10-21T13:34:00,pkn,2.40
2023-10-21T13:35:00,pkn,7.20
2023-10-21T13:36:00,pkn,6.00
2023-10-21T13:38:00,pkn,9.60
2023-10-21T13:40:00,pkn,1.20
2023-10-21T13:41:00,pkn,1.20
2023-10-21T13:42:00,pkn,1.20
2023-10-21T13:44:00,pkn,1.20
2023-10-21T13:45:00,pkn,1.20
2023-10-21T13:47:00,pkn,2.40
2023-10-21T13:49:00,pkn,2.40
2023-10-21T13:51:00,pkn,1.20
2023-10-21T13:52:00,pkn,1.20
2023-10-21T13:54:00,pkn,1.20
2023-10-21T13:56:00,pkn,1.20
2023-10-21T13:57:00,pkn,1.20
2023-10-21T13:59:00,pkn,1.20
2023-10-21T14:00:00,pkn,1.20
2023-10-21T14:02:00,pkn,2.40
2023-10-21T14:03:00,pkn,1.20
2023-10-21T14:05:00,pkn,2.40
2023-10-21T14:06:00,pkn,1.20
2023-10-21T14:08:00,pkn,2.40
2023-10-21T14:09:00,pkn,1.20
2023-10-21T14:11:00,pkn,3.60
2023-10-21T14:13:00,pkn,2.40
2023-10-21T14:14:00,pkn,2.40
2023-10-21T14:15:00,pkn,1.20
2023-10-21T14:17:00,pkn,1.20
2023-10-21T14:19:00,pkn,2.40
2023-10-21T14:21:00,pkn,2.40
2023-10-21T14:23:00,pkn,2.40
2023-10-21T14:25:00,pkn,2.40
2023-10-21T14:27:00,pkn,2.40
2023-10-21T14:29:00,pkn,3.60
2023-10-21T14:30:00,pkn,1.20
2023-10-21T14:31:00,pkn,1.20
2023-10-21T14:33:00,pkn,2.40
2023-10-21T14:35:00,pkn,2.40
2023-10-21T14:37:00,pkn,2.40
2023-10-21T14:39:00,pkn,2.40
2023-10-21T14:41:00,pkn,4.80
2023-10-21T14:43:00,pkn,9.60
2023-10-21T14:44:00,pkn,6.00
2023-10-21T14:46:00,pkn,10.80
2023-10-21T14:47:00,pkn,4.80
2023-10-21T14:49:00,pkn,10.80
2023-10-21T14:51:00,pkn,7.20
2023-10-21T14:53:00,pkn,2.40
2023-10-21T14:55:00,pkn,1.20
2023-10-21T14:57:00,pkn,2.40
2023-10-21T14:58:00,pkn,1.20
2023-10-21T15:00:00,pkn,3.60
2023-10-21T15:01:00,pkn,1.20
2023-10-21T15:02:00,pkn,1.20
2023-10-21T15:03:00,pkn,1.20
2023-10-21T15:05:00,pkn,1.20
2023-10-21T15:07:00,pkn,1.20
2023-10-21T15:09:00,pkn,2.40
2023-10-21T15:11:00,pkn,1.20
2023-10-21T15:13:00,pkn,1.20
2023-10-21T15:14:00,pkn,1.20
2023-10-21T15:16:00,pkn,1.20
2023-10-21T15:17:00,pkn,2.40
2023-10-21T15:18:00,pkn,1.20
2023-10-21T15:19:00,pkn,7.20
2023-10-21T15:20:00,pkn,6.00
2023-10-21T15:22:00,pkn,10.80
2023-10-21T15:23:00,pkn,3.60
2023-10-21T15:25:00,pkn,7.20
2023-10-21T15:27:00,pkn,2.40
2023-10-21T15:29:00,pkn,1.20
2023-10-21T15:31:00,pkn,1.20
2023-10-21T15:33:00,pkn,1.20
2023-10-21T15:36:00,pkn,2.40
2023-10-21T15:39:00,pkn,1.20
2023-10-21T15:41:00,pkn,1.20
2023-10-21T15:42:00,pkn,1.20
2023-10-21T15:44:00,pkn,1.20
2023-10-21T15:46:00,pkn,1.20
2023-10-21T15:47:00,pkn,1.20
2023-10-21T15:50:00,pkn,1.20
2023-10-21T15:52:00,pkn,1.20
2023-10-21T15:53:00,pkn,1.20
2023-10-21T15:55:00,pkn,1.20
2023-10-21T15:57:00,pkn,1.20
2023-10-21T15:59:00,pkn,2.40
2023-10-21T16:01:00,pkn,1.20
2023-10-21T16:02:00,pkn,1.20
2023-10-21T16:03:00,pkn,1.20
2023-10-21T16:05:00,pkn,2.40
2023-10-21T16:07:00,pkn,7.20
2023-10-21T16:08:00,pkn,6.00
2023-10-21T16:10:00,pkn,9.60
2023-10-21T16:12:00,pkn,8.40
2023-10-21T16:14:00,pkn,4.80
2023-10-21T16:16:00,pkn,1.20
2023-10-21T16:18:00,pkn,1.20
2023-10-21T16:20:00,pkn,1.20
2023-10-21T16:22:00,pkn,2.40
2023-10-21T16:23:00,pkn,3.60
2023-10-21T16:25:00,pkn,6.00
2023-10-21T16:26:00,pkn,2.40
2023-10-21T16:27:00,pkn,2.40
2023-10-21T16:29:00,pkn,1.20
2023-10-21T16:31:00,pkn,1.20
2023-10-21T16:32:00,pkn,1.20
2023-10-21T16:34:00,pkn,1.20
2023-10-21T16:36:00,pkn,1.20
2023-10-21T16:37:00,pkn,3.60
2023-10-21T16:39:00,pkn,8.40
2023-10-21T16:41:00,pkn,9.60
2023-10-21T16:42:00,pkn,4.80
2023-10-21T16:43:00,pkn,4.80
2023-10-21T16:44:00,pkn,4.80
2023-10-21T16:46:00,pkn,9.60
2023-10-21T16:47:00,pkn,4.80
2023-10-21T16:49:00,pkn,3.60
2023-10-21T16:50:00,pkn,1.20
2023-10-21T16:51:00,pkn,1.20
2023-10-21T16:54:00,pkn,2.40
2023-10-21T16:56:00,pkn,1.20
2023-10-21T16:58:00,pkn,2.40
2023-10-21T17:00:00,pkn,2.40
2023-10-21T17:01:00,pkn,4.80
2023-10-21T17:02:00,pkn,4.80
2023-10-21T17:03:00,pkn,1.20
2023-10-21T17:04:00,pkn,8.40
2023-10-21T17:06:00,pkn,10.80
2023-10-21T17:08:00,pkn,9.60
2023-10-21T17:10:00,pkn,10.80
2023-10-21T17:12:00,pkn,7.20
2023-10-21T17:14:00,pkn,2.40
2023-10-21T17:16:00,pkn,1.20
2023-10-21T17:18:00,pkn,2.40
2023-10-21T17:20:00,pkn,2.40
2023-10-21T17:22:00,pkn,1.20
2023-10-21T17:23:00,pkn,1.20
2023-10-21T17:25:00,pkn,2.40
2023-10-21T17:28:00,pkn,2.40
2023-10-21T17:30:00,pkn,2.40
2023-10-21T17:32:00,pkn,1.20
2023-10-21T17:34:00,pkn,2.40
2023-10-21T17:36:00,pkn,2.40
2023-10-21T17:38:00,pkn,9.60
2023-10-21T17:40:00,pkn,10.80
2023-10-21T17:42:00,pkn,10.80
2023-10-21T17:44:00,pkn,9.60
2023-10-21T17:46:00,pkn,2.40
2023-10-21T17:48:00,pkn,2.40
2023-10-21T17:50:00,pkn,2.40
2023-10-21T17:51:00,pkn,1.20
2023-10-21T17:53:00,pkn,2.40
2023-10-21T17:55:00,pkn,2.40
2023-10-21T17:57:00,pkn,2.40
2023-10-21T17:58:00,pkn,1.20
2023-10-21T17:59:00,pkn,1.20
2023-10-21T18:01:00,pkn,2.40
2023-10-21T18:03:00,pkn,1.20
2023-10-21T18:05:00,pkn,2.40
2023-10-21T18:07:00,pkn,1.20
2023-10-21T18:09:00,pkn,2.40
2023-10-21T18:11:00,pkn,1.20
2023-10-21T18:13:00,pkn,2.40
2023-10-21T18:15:00,pkn,1.20
2023-10-21T18:17:00,pkn,2.40
2023-10-21T18:19:00,pkn,1.20
2023-10-21T18:21:00,pkn,2.40
2023-10-21T18:23:00,pkn,2.40
2023-10-21T18:25:00,pkn,9.60
2023-10-21T18:26:00,pkn,3.60
2023-10-21T18:28:00,pkn,10.80
2023-10-21T18:30:00,pkn,9.60
2023-10-21T18:31:00,pkn,6.00
2023-10-21T18:32:00,pkn,3.60
2023-10-21T18:34:00,pkn,10.80
2023-10-21T18:36:00,pkn,8.40
2023-10-21T18:38:00,pkn,2.40
2023-10-21T18:40:00,pkn,2.40
2023-10-21T18:42:00,pkn,2.40
2023-10-21T18:43:00,pkn,1.20
2023-10-21T18:44:00,pkn,1.20
2023-10-21T18:47:00,pkn,2.40
2023-10-21T18:49:00,pkn,2.40
2023-10-21T18:50:00,pkn,1.20
2023-10-21T18:52:00,pkn,2.40
2023-10-21T18:53:00,pkn,1.20
2023-10-21T18:55:00,pkn,2.40
2023-10-21T18:57:00,pkn,1.20
2023-10-21T18:59:00,pkn,2.40
2023-10-21T19:00:00,pkn,1.20
2023-10-21T19:02:00,pkn,2.40
2023-10-21T19:04:00,pkn,1.20
2023-10-21T19:05:00,pkn,2.40
2023-10-21T19:07:00,pkn,1.20
2023-10-21T19:09:00,pkn,2.40
2023-10-21T19:11:00,pkn,2.40
2023-10-21T19:12:00,pkn,3.60
2023-10-21T19:13:00,pkn,4.80
2023-10-21T19:15:00,pkn,10.80
2023-10-21T19:16:00,pkn,4.80
2023-10-21T19:17:00,pkn,1.20
2023-10-21T19:18:00,pkn,8.40
2023-10-21T19:19:00,pkn,2.40
2023-10-21T19:20:00,pkn,8.40
2023-10-21T19:21:00,pkn,6.00
2023-10-21T19:23:00,pkn,10.80
2023-10-21T19:25:00,pkn,10.80
2023-10-21T19:26:00,pkn,4.80
2023-10-21T19:28:00,pkn,8.40
2023-10-21T19:30:00,pkn,2.40
2023-10-21T19:32:00,pkn,2.40
2023-10-21T19:33:00,pkn,1.20
2023-10-21T19:35:00,pkn,2.40
2023-10-21T19:37:00,pkn,1.20
2023-10-21T19:39:00,pkn,2.40
2023-10-21T19:40:00,pkn,1.20
2023-10-21T19:42:00,pkn,3.60
2023-10-21T19:43:00,pkn,4.80
2023-10-21T19:45:00,pkn,10.80
2023-10-21T19:47:00,pkn,9.60
2023-10-21T19:48:00,pkn,6.00
2023-10-21T19:50:00,pkn,8.40
2023-10-21T19:52:00,pkn,10.80
2023-10-21T19:54:00,pkn,6.00
2023-10-21T19:55:00,pkn,1.20
2023-10-21T19:57:00,pkn,2.40
2023-10-21T19:59:00,pkn,4.80
2023-10-21T20:00:00,pkn,1.20
2023-10-21T20:02:00,pkn,3.60
2023-10-21T20:04:00,pkn,4.80
2023-10-21T20:06:00,pkn,6.00
2023-10-21T20:08:00,pkn,4.80
2023-10-21T20:10:00,pkn,3.60
2023-10-21T20:12:00,pkn,8.40
2023-10-21T20:14:00,pkn,10.80
2023-10-21T20:16:00,pkn,9.60
2023-10-21T20:18:00,pkn,10.80
2023-10-21T20:19:00,pkn,1.20
2023-10-21T20:20:00,pkn,8.40
2023-10-21T20:21:00,pkn,2.40
2023-10-21T20:22:00,pkn,8.40
2023-10-21T20:24:00,pkn,9.60
2023-10-21T20:26:00,pkn,4.80
2023-10-21T20:28:00,pkn,1.20
2023-10-21T20:29:00,pkn,1.20
2023-10-21T20:31:00,pkn,2.40
2023-10-21T20:34:00,pkn,2.40
2023-10-21T20:35:00,pkn,1.20
2023-10-21T20:37:00,pkn,2.40
2023-10-21T20:39:00,pkn,3.60
2023-10-21T20:40:00,pkn,2.40
2023-10-21T20:42:00,pkn,9.60
2023-10-21T20:43:00,pkn,6.00
2023-10-21T20:45:00,pkn,9.60
2023-10-21T20:47:00,pkn,10.80
2023-10-21T20:49:00,pkn,10.80
2023-10-21T20:51:00,pkn,8.40
2023-10-21T20:53:00,pkn,2.40
2023-10-21T20:54:00,pkn,2.40
2023-10-21T20:56:00,pkn,3.60
2023-10-21T20:57:00,pkn,1.20
2023-10-21T20:58:00,pkn,1.20
2023-10-21T21:00:00,pkn,2.40
2023-10-21T21:01:00,pkn,1.20
2023-10-21T21:03:00,pkn,2.40
2023-10-21T21:05:00,pkn,2.40
2023-10-21T21:06:00,pkn,1.20
2023-10-21T21:07:00,pkn,1.20
2023-10-21T21:08:00,pkn,1.20
2023-10-21T21:10:00,pkn,2.40
2023-10-21T21:12:00,pkn,3.60
2023-10-21T21:14:00,pkn,10.80
2023-10-21T21:16:00,pkn,10.80
2023-10-21T21:18:00,pkn,9.60
2023-10-21T21:20:00,pkn,9.60
2023-10-21T21:21:00,pkn,6.00
2023-10-21T21:22:00,pkn,2.40
2023-10-21T21:24:00,pkn,2.40
2023-10-21T21:26:00,pkn,1.20
2023-10-21T21:27:00,pkn,1.20
2023-10-21T21:29:00,pkn,2.40
2023-10-21T21:30:00,pkn,1.20
2023-10-21T21:32:00,pkn,2.40
2023-10-21T21:35:00,pkn,2.40
2023-10-21T21:36:00,pkn,1.20
2023-10-21T21:38:00,pkn,2.40
2023-10-21T21:39:00,pkn,1.20
2023-10-21T21:42:00,pkn,2.40
2023-10-21T21:43:00,pkn,1.20
2023-10-21T21:45:00,pkn,4.80
2023-10-21T21:46:00,pkn,2.40
2023-10-21T21:47:00,pkn,6.00
2023-10-21T21:49:00,pkn,16.80
2023-10-21T21:51:00,pkn,18.00
2023-10-21T21:52:00,pkn,7.20
2023-10-21T21:53:00,pkn,4.80
2023-10-21T21:54:00,pkn,12.00
2023-10-21T21:55:00,pkn,7.20
2023-10-21T21:57:00,pkn,16.80
2023-10-21T21:59:00,pkn,6.00
2023-10-21T22:00:00,pkn,2.40
2023-10-21T22:01:00,pkn,1.20
2023-10-21T22:02:00,pkn,2.40
2023-10-21T22:03:00,pkn,2.40
2023-10-21T22:05:00,pkn,2.40
2023-10-21T22:06:00,pkn,1.20
2023-10-21T22:08:00,pkn,2.40
2023-10-21T22:10:00,pkn,2.40
2023-10-21T22:12:00,pkn,1.20
2023-10-21T22:13:00,pkn,1.20
2023-10-21T22:15:00,pkn,2.40
2023-10-21T22:17:00,pkn,1.20
2023-10-21T22:19:00,pkn,1.20
2023-10-21T22:21:00,pkn,3.60
2023-10-21T22:23:00,pkn,3.60
2023-10-21T22:24:00,pkn,2.40
2023-10-21T22:26:00,pkn,4.80
2023-10-21T22:27:00,pkn,1.20
2023-10-21T22:28:00,pkn,2.40
2023-10-21T22:30:00,pkn,2.40
2023-10-21T22:32:00,pkn,6.00
2023-10-21T22:33:00,pkn,2.40
2023-10-21T22:34:00,pkn,6.00
2023-10-21T22:35:00,pkn,7.20
2023-10-21T22:37:00,pkn,10.80
2023-10-21T22:39:00,pkn,9.60
2023-10-21T22:40:00,pkn,4.80
2023-10-21T22:42:00,pkn,6.00
2023-10-21T22:43:00,pkn,1.20
2023-10-21T22:45:00,pkn,1.20
2023-10-21T22:47:00,pkn,2.40
2023-10-21T22:49:00,pkn,2.40
2023-10-21T22:50:00,pkn,1.20
2023-10-21T22:52:00,pkn,2.40
2023-10-21T22:53:00,pkn,1.20
2023-10-21T22:56:00,pkn,2.40
2023-10-21T22:58:00,pkn,2.40
2023-10-21T23:00:00,pkn,1.20
2023-10-21T23:02:00,pkn,2.40
2023-10-21T23:03:00,pkn,1.20
2023-10-21T23:05:00,pkn,2.40
2023-10-21T23:06:00,pkn,1.20
2023-10-21T23:08:00,pkn,1.20
2023-10-21T23:09:00,pkn,1.20
2023-10-21T23:10:00,pkn,1.20
2023-10-21T23:11:00,pkn,1.20
2023-10-21T23:13:00,pkn,2.40
2023-10-21T23:14:00,pkn,1.20
2023-10-21T23:16:00,pkn,4.80
2023-10-21T23:18:00,pkn,9.60
2023-10-21T23:20:00,pkn,9.60
2023-10-21T23:21:00,pkn,1.20
2023-10-21T23:22:00,pkn,9.60
2023-10-21T23:24:00,pkn,9.60
2023-10-21T23:26:00,pkn,10.80
2023-10-21T23:28:00,pkn,10.80
2023-10-21T23:29:00,pkn,4.80
2023-10-21T23:30:00,pkn,1.20
2023-10-21T23:31:00,pkn,1.20
2023-10-21T23:33:00,pkn,2.40